Change the Weather History Date:

Thursday, January 19, 2012

  Actual Average Record
Temperature  
Mean Temperature -5 °F 16 °F  
Max Temperature 3 °F 26 °F 57 °F (1919)
Min Temperature -13 °F 6 °F -36 °F (1943)
Degree Days  
Heating Degree Days 70 49  
Month to date heating degree days 812 931  
Since 1 July heating degree days 3796 4468  
Cooling Degree Days 0 0  
Month to date cooling degree days 0 0  
Year to date cooling degree days 0 0  
Moisture  
Dew Point -11 °F    
Average Humidity 71    
Maximum Humidity 79    
Minimum Humidity 63    
Precipitation  
Precipitation T in 0.01 in 0.07 in (1951)
Month to date precipitation 0.05 0.20  
Year to date precipitation 0.05 0.20  
Sea Level Pressure  
Sea Level Pressure 30.07 in    
Wind  
Wind Speed 7 mph (West)    
Max Wind Speed 12 mph    
Max Gust Speed 14 mph    
Visibility 8 miles    
Events Snow    
T = Trace of Precipitation, MM = Missing Value Source: NWS Daily Summary

Daily Weather History Graph

Daily Weather History Graph

Search for Another Location

Airport or City:

Trip Planner

Search our weather history database for the weather conditions in past years. The results will help you decide how hot, cold, wet, or windy it might be!

Date:

Astronomy

Jan. 19, 2012 Rise Set
Actual Time 7:29 AM MST 4:34 PM MST
Civil Twilight 6:55 AM MST 5:08 PM MST
Nautical Twilight 6:18 AM MST 5:45 PM MST
Astronomical Twilight 5:42 AM MST 6:22 PM MST
Moon 4:12 AM MST (1/19) 1:04 PM MST (1/19)
Length of Visible Light 10h 12m
Length of Day
9h 05m
Waning Crescent, 15% of the Moon is Illuminated
Jan 19
Waning Crescent
Jan 23
New
Jan 30
First Quarter
Feb 7
Full
Feb 14
Last Quarter

Hourly Weather History & Observations

Time (MST) Temp. Windchill Dew Point Humidity Pressure Visibility Wind Dir Wind Speed Gust Speed Precip Events Conditions
12:56 AM -11.9 °F -28.7 °F -20.9 °F 64% 30.17 in 10.0 mi WNW 8.1 mph - N/A   Mostly Cloudy
1:56 AM -11.0 °F -28.8 °F -20.0 °F 64% 30.18 in 10.0 mi West 9.2 mph - N/A   Overcast
2:56 AM -11.0 °F -26.2 °F -20.0 °F 64% 30.19 in 10.0 mi West 6.9 mph - N/A   Overcast
3:56 AM -11.0 °F -26.2 °F -18.9 °F 68% 30.19 in 10.0 mi West 6.9 mph - N/A   Mostly Cloudy
5:56 AM -9.0 °F -28.4 °F -18.0 °F 65% 30.17 in 10.0 mi West 11.5 mph - N/A   Overcast
6:56 AM -9.0 °F -27.4 °F -16.1 °F 71% 30.17 in 6.0 mi West 10.4 mph - 0.00 in Snow Light Snow
7:44 AM -9.4 °F -26.8 °F -14.8 °F 77% 29.92 in 2.0 mi West 9.2 mph - 0.00 in Snow Light Snow
7:56 AM -9.0 °F -25.2 °F -15.0 °F 75% 30.17 in 3.0 mi West 8.1 mph - 0.00 in Snow Light Snow
9:56 AM -5.1 °F -20.4 °F -14.1 °F 65% 30.16 in 10.0 mi WSW 8.1 mph - N/A   Overcast
10:56 AM -2.9 °F -16.5 °F -11.9 °F 65% 30.14 in 10.0 mi West 6.9 mph - N/A   Mostly Cloudy
11:56 AM -0.0 °F -15.3 °F -9.9 °F 63% 30.10 in 10.0 mi West 9.2 mph - N/A   Overcast
12:56 PM 1.0 °F -10.3 °F -8.0 °F 66% 30.06 in 10.0 mi Variable 5.8 mph - N/A   Overcast
1:56 PM 1.9 °F -5.6 °F -8.0 °F 63% 30.04 in 10.0 mi WSW 3.5 mph - N/A   Scattered Clouds
2:56 PM 1.9 °F -5.6 °F -6.0 °F 69% 30.03 in 10.0 mi SSW 3.5 mph - N/A   Mostly Cloudy
3:56 PM 1.9 °F - -6.0 °F 69% 30.02 in 10.0 mi Calm Calm - N/A   Partly Cloudy
4:56 PM -0.0 °F -7.9 °F -7.1 °F 72% 30.01 in 10.0 mi SSE 3.5 mph - N/A   Mostly Cloudy
5:56 PM -0.0 °F -7.9 °F -6.0 °F 76% 30.01 in 5.0 mi East 3.5 mph - 0.00 in Snow Light Snow
6:56 PM 1.0 °F -8.7 °F -5.1 °F 75% 29.99 in 10.0 mi East 4.6 mph - 0.00 in   Overcast
8:56 PM 1.9 °F -9.2 °F -2.9 °F 80% 29.98 in 5.0 mi East 5.8 mph - 0.00 in Snow Light Snow
9:56 PM 3.0 °F -8.0 °F -2.0 °F 80% 29.96 in 7.0 mi East 5.8 mph - 0.00 in   Overcast
10:56 PM 3.0 °F -9.3 °F -2.0 °F 80% 29.95 in 4.0 mi ENE 6.9 mph - 0.00 in Snow Light Snow
11:56 PM 3.0 °F -9.3 °F -2.0 °F 80% 29.95 in 3.0 mi NE 6.9 mph - 0.00 in Snow Light Snow